Location: Bosmont
(49.7318°N, 3.8587°E)
Time: 07:51:12
(UTC+00:00)

Cosmos 1461 - Pass Details

Date: 08 February 2023
Orbit: 492 x 644 km, 65.0° (Epoch: 24 March)

Event Time Altitude Azimuth Distance (km) Brightness Sun altitude
Rises 17:31:52 0° 226° (SW) 2,769 7.6 -7.1°
Reaches altitude 10° 17:34:03 10° 228° (SW) 1,902 6.7 -7.4°
Maximum altitude 17:38:20 68° 312° (NW) 656 3.3 -8.1°
Drops below altitude 10° 17:42:52 10° 36° (NE) 2,008 5.2 -8.8°
Enters shadow 17:44:01 - 38° (NE) 2,462 5.7 -9.0°
